| time (UTC) | temp F | wind direction | speed MPH | gust MPH | rain 1hr in | rain 24hr in | rain mn in | humidity % | barometer mb |
| 20260506035608 | 52 | 203 | 0.0 | 2.0 | 0.00 | 0.27 | 0.00 | 97 | 1006.9 |
| 20260506034612 | 52 | 0.0 | 2.0 | 0.00 | 0.27 | 0.00 | 97 | 1006.8 | |
| 20260506033604 | 52 | 196 | 1.0 | 2.0 | 0.00 | 0.27 | 0.00 | 97 | 1007.0 |
| 20260506032557 | 52 | 180 | 3.0 | 4.0 | 0.00 | 0.27 | 0.00 | 96 | 1006.9 |
| 20260506031552 | 52 | 183 | 2.0 | 4.0 | 0.00 | 0.27 | 0.00 | 97 | 1007.0 |
| 20260506030549 | 52 | 187 | 1.0 | 2.0 | 0.00 | 0.27 | 0.00 | 97 | 1007.0 |
| 20260506025549 | 52 | 180 | 2.0 | 4.0 | 0.00 | 0.27 | 0.00 | 97 | 1007.0 |
| 20260506024542 | 52 | 180 | 2.0 | 4.0 | 0.00 | 0.27 | 0.00 | 96 | 1007.0 |
| 20260506023538 | 52 | 198 | 1.0 | 4.0 | 0.00 | 0.27 | 0.00 | 97 | 1007.2 |
| 20260506022534 | 52 | 248 | 0.0 | 2.0 | 0.00 | 0.27 | 0.00 | 96 | 1007.0 |
| 20260506021530 | 53 | 0.0 | 0.0 | 0.00 | 0.27 | 0.00 | 96 | 1006.9 | |
| 20260506020525 | 53 | 222 | 1.0 | 4.0 | 0.00 | 0.27 | 0.00 | 96 | 1006.9 |
| 20260506015524 | 53 | 196 | 1.0 | 4.0 | 0.00 | 0.27 | 0.00 | 96 | 1006.8 |
| 20260506014517 | 53 | 200 | 1.0 | 4.0 | 0.00 | 0.27 | 0.00 | 96 | 1007.0 |
| 20260506013614 | 53 | 184 | 2.0 | 4.0 | 0.00 | 0.27 | 0.00 | 96 | 1007.1 |
| 20260506012611 | 53 | 182 | 2.0 | 4.0 | 0.00 | 0.27 | 0.00 | 96 | 1007.2 |
| 20260506011608 | 53 | 184 | 4.0 | 7.0 | 0.00 | 0.27 | 0.00 | 96 | 1007.3 |
| 20260506010604 | 53 | 206 | 1.0 | 4.0 | 0.00 | 0.27 | 0.00 | 96 | 1007.2 |
| 20260506005600 | 53 | 193 | 1.0 | 2.0 | 0.00 | 0.27 | 0.00 | 96 | 1007.2 |
| 20260506004555 | 53 | 0.0 | 2.0 | 0.00 | 0.27 | 0.00 | 96 | 1007.2 | |
| 20260506003552 | 53 | 270 | 0.0 | 2.0 | 0.00 | 0.27 | 0.00 | 96 | 1007.3 |
| 20260506002552 | 53 | 205 | 1.0 | 2.0 | 0.00 | 0.27 | 0.00 | 96 | 1007.5 |
| 20260506001545 | 53 | 190 | 1.0 | 4.0 | 0.00 | 0.27 | 0.00 | 96 | 1007.4 |
| 20260506000542 | 53 | 180 | 1.0 | 2.0 | 0.00 | 0.27 | 0.00 | 96 | 1007.7 |
| 20260505235543 | 53 | 180 | 1.0 | 2.0 | 0.00 | 0.27 | 0.00 | 96 | 1007.6 |
| 20260505234536 | 53 | 187 | 2.0 | 4.0 | 0.00 | 0.27 | 0.00 | 96 | 1007.8 |
| 20260505233532 | 53 | 184 | 2.0 | 4.0 | 0.00 | 0.27 | 0.00 | 96 | 1007.7 |
| 20260505232528 | 53 | 184 | 2.0 | 4.0 | 0.00 | 0.27 | 0.00 | 97 | 1007.7 |
| 20260505231524 | 53 | 191 | 2.0 | 4.0 | 0.00 | 0.27 | 0.00 | 97 | 1007.8 |
| 20260505230520 | 54 | 225 | 1.0 | 2.0 | 0.00 | 0.27 | 0.00 | 96 | 1007.9 |
| 20260505225517 | 54 | 194 | 2.0 | 4.0 | 0.00 | 0.27 | 0.00 | 96 | 1007.9 |
| 20260505224614 | 54 | 244 | 2.0 | 4.0 | 0.00 | 0.27 | 0.00 | 96 | 1007.9 |
| 20260505223610 | 54 | 188 | 2.0 | 4.0 | 0.00 | 0.27 | 0.00 | 96 | 1008.0 |
| 20260505222606 | 54 | 228 | 2.0 | 6.0 | 0.00 | 0.27 | 0.00 | 96 | 1007.9 |
| 20260505221610 | 54 | 196 | 2.0 | 6.0 | 0.00 | 0.27 | 0.00 | 96 | 1008.0 |
| 20260505220558 | 54 | 185 | 3.0 | 6.0 | 0.00 | 0.27 | 0.00 | 96 | 1007.8 |
| 20260505215553 | 54 | 196 | 1.0 | 4.0 | 0.00 | 0.27 | 0.27 | 95 | 1007.9 |
| 20260505214552 | 54 | 212 | 1.0 | 4.0 | 0.00 | 0.27 | 0.27 | 95 | 1008.1 |
| 20260505213545 | 54 | 182 | 1.0 | 4.0 | 0.00 | 0.27 | 0.27 | 95 | 1008.1 |
| 20260505212542 | 54 | 198 | 2.0 | 4.0 | 0.00 | 0.27 | 0.27 | 95 | 1008.1 |
| 20260505211539 | 55 | 231 | 1.0 | 2.0 | 0.00 | 0.27 | 0.27 | 94 | 1007.8 |
| 20260505210538 | 54 | 210 | 1.0 | 4.0 | 0.00 | 0.27 | 0.27 | 95 | 1007.9 |
| 20260505205531 | 55 | 248 | 0.0 | 2.0 | 0.00 | 0.27 | 0.27 | 95 | 1007.8 |
| 20260505204529 | 55 | 248 | 0.0 | 2.0 | 0.00 | 0.27 | 0.27 | 95 | 1007.6 |
| 20260505203523 | 55 | 180 | 2.0 | 4.0 | 0.00 | 0.27 | 0.27 | 95 | 1007.8 |
| 20260505202523 | 56 | 202 | 2.0 | 4.0 | 0.00 | 0.27 | 0.27 | 95 | 1007.5 |
| 20260505201520 | 56 | 179 | 3.0 | 4.0 | 0.00 | 0.27 | 0.27 | 95 | 1007.6 |
| 20260505200614 | 56 | 213 | 1.0 | 2.0 | 0.00 | 0.27 | 0.27 | 95 | 1007.5 |
| 20260505195611 | 56 | 180 | 2.0 | 4.0 | 0.00 | 0.27 | 0.27 | 95 | 1007.6 |
| 20260505194607 | 56 | 180 | 1.0 | 2.0 | 0.00 | 0.27 | 0.27 | 95 | 1007.6 |
| 20260505193604 | 56 | 191 | 2.0 | 2.0 | 0.00 | 0.27 | 0.27 | 94 | 1007.5 |
| 20260505192559 | 56 | 222 | 1.0 | 4.0 | 0.00 | 0.27 | 0.27 | 93 | 1007.4 |
| 20260505191555 | 57 | 258 | 2.0 | 4.0 | 0.00 | 0.27 | 0.27 | 94 | 1007.3 |
| 20260505190552 | 57 | 243 | 2.0 | 4.0 | 0.00 | 0.27 | 0.27 | 94 | 1007.2 |
| 20260505185549 | 57 | 250 | 2.0 | 4.0 | 0.00 | 0.27 | 0.27 | 94 | 1007.2 |
| 20260505184545 | 57 | 226 | 2.0 | 4.0 | 0.00 | 0.27 | 0.27 | 94 | 1007.1 |
| 20260505183541 | 57 | 237 | 2.0 | 4.0 | 0.00 | 0.27 | 0.27 | 94 | 1007.2 |
| 20260505182537 | 57 | 237 | 1.0 | 4.0 | 0.00 | 0.27 | 0.27 | 94 | 1007.1 |
| 20260505181536 | 57 | 235 | 2.0 | 4.0 | 0.00 | 0.27 | 0.27 | 94 | 1007.1 |
| 20260505180529 | 57 | 218 | 2.0 | 4.0 | 0.00 | 0.27 | 0.27 | 94 | 1007.2 |
| 20260505175527 | 57 | 217 | 3.0 | 6.0 | 0.00 | 0.27 | 0.27 | 93 | 1007.1 |
| 20260505174520 | 57 | 255 | 2.0 | 6.0 | 0.00 | 0.27 | 0.27 | 93 | 1007.0 |
| 20260505173517 | 57 | 226 | 3.0 | 6.0 | 0.00 | 0.27 | 0.27 | 93 | 1006.9 |
| 20260505172614 | 57 | 230 | 4.0 | 7.0 | 0.00 | 0.27 | 0.27 | 92 | 1006.8 |
| 20260505171611 | 57 | 198 | 3.0 | 7.0 | 0.02 | 0.27 | 0.27 | 92 | 1006.7 |
| 20260505170610 | 57 | 241 | 3.0 | 6.0 | 0.05 | 0.27 | 0.27 | 92 | 1006.7 |
| 20260505165605 | 57 | 233 | 2.0 | 7.0 | 0.14 | 0.27 | 0.27 | 93 | 1006.7 |
| 20260505164559 | 57 | 229 | 3.0 | 7.0 | 0.25 | 0.27 | 0.27 | 93 | 1006.9 |
| 20260505163555 | 56 | 229 | 5.0 | 9.0 | 0.27 | 0.27 | 0.27 | 94 | 1006.8 |
| 20260505162552 | 56 | 226 | 6.0 | 11.0 | 0.27 | 0.27 | 0.27 | 93 | 1007.0 |
| 20260505161552 | 57 | 222 | 6.0 | 14.0 | 0.25 | 0.25 | 0.25 | 93 | 1007.3 |
| 20260505160548 | 57 | 240 | 7.0 | 14.0 | 0.22 | 0.22 | 0.22 | 93 | 1007.5 |
| 20260505152531 | 69 | 242 | 3.0 | 4.0 | 0.00 | 0.00 | 0.00 | 61 | 1005.9 |
| 20260505151529 | 70 | 240 | 4.0 | 7.0 | 0.00 | 0.00 | 0.00 | 57 | 1005.5 |
| 20260505150526 | 71 | 229 | 1.0 | 6.0 | 0.00 | 0.00 | 0.00 | 53 | 1005.5 |
| 20260505140603 | 73 | 106 | 2.0 | 4.0 | 0.00 | 0.00 | 0.00 | 50 | 1005.6 |
| 20260505124530 | 76 | 248 | 1.0 | 4.0 | 0.00 | 0.00 | 0.00 | 40 | 1006.4 |
| 20260505123527 | 78 | 210 | 2.0 | 4.0 | 0.00 | 0.00 | 0.00 | 39 | 1006.5 |
| 20260505122523 | 75 | 71 | 1.0 | 4.0 | 0.00 | 0.00 | 0.00 | 42 | 1006.6 |
| 20260505121520 | 75 | 213 | 2.0 | 4.0 | 0.00 | 0.00 | 0.00 | 41 | 1006.8 |
| 20260505120520 | 75 | 240 | 2.0 | 4.0 | 0.00 | 0.00 | 0.00 | 42 | 1006.8 |
| 20260505115615 | 74 | 218 | 2.0 | 4.0 | 0.00 | 0.00 | 0.00 | 43 | 1006.9 |
| 20260505114611 | 75 | 161 | 2.0 | 6.0 | 0.00 | 0.00 | 0.00 | 45 | 1007.0 |
| 20260505113607 | 77 | 73 | 1.0 | 4.0 | 0.00 | 0.00 | 0.00 | 40 | 1007.1 |
| 20260505112606 | 74 | 202 | 1.0 | 4.0 | 0.00 | 0.00 | 0.00 | 44 | 1007.2 |
| 20260505111601 | 73 | 235 | 2.0 | 4.0 | 0.00 | 0.00 | 0.00 | 45 | 1007.3 |
| 20260505110603 | 75 | 214 | 1.0 | 4.0 | 0.00 | 0.00 | 0.00 | 45 | 1007.3 |
| 20260505101539 | 72 | 72 | 3.0 | 7.0 | 0.00 | 0.00 | 0.00 | 49 | 1007.8 |
| 20260505100535 | 72 | 88 | 3.0 | 6.0 | 0.00 | 0.00 | 0.00 | 52 | 1007.9 |
| 20260505095528 | 71 | 79 | 2.0 | 4.0 | 0.00 | 0.00 | 0.00 | 53 | 1007.9 |
| 20260505094523 | 70 | 86 | 3.0 | 9.0 | 0.00 | 0.00 | 0.00 | 55 | 1008.1 |
| 20260505093520 | 71 | 74 | 4.0 | 9.0 | 0.00 | 0.00 | 0.00 | 55 | 1008.1 |
| 20260505092517 | 72 | 67 | 2.0 | 6.0 | 0.00 | 0.00 | 0.00 | 54 | 1008.3 |
| 20260505091617 | 70 | 77 | 4.0 | 8.0 | 0.00 | 0.00 | 0.00 | 56 | 1008.5 |
| 20260505090610 | 71 | 74 | 3.0 | 8.0 | 0.00 | 0.00 | 0.00 | 56 | 1008.5 |
| 20260505085606 | 69 | 110 | 1.0 | 4.0 | 0.00 | 0.00 | 0.00 | 59 | 1008.7 |
| 20260505084604 | 69 | 73 | 2.0 | 6.0 | 0.00 | 0.00 | 0.00 | 59 | 1008.6 |
| 20260505083558 | 69 | 89 | 2.0 | 6.0 | 0.00 | 0.00 | 0.00 | 59 | 1008.8 |
| 20260505082555 | 68 | 84 | 2.0 | 6.0 | 0.00 | 0.00 | 0.00 | 61 | 1009.0 |
| 20260505081555 | 66 | 194 | 1.0 | 2.0 | 0.00 | 0.00 | 0.00 | 65 | 1008.9 |
| 20260505080549 | 65 | 212 | 1.0 | 4.0 | 0.00 | 0.00 | 0.00 | 66 | 1009.0 |
| 20260505075545 | 66 | 184 | 1.0 | 4.0 | 0.00 | 0.00 | 0.00 | 65 | 1009.1 |
| 20260505074546 | 67 | 229 | 1.0 | 4.0 | 0.00 | 0.00 | 0.00 | 64 | 1009.3 |
| 20260505073541 | 65 | 237 | 1.0 | 4.0 | 0.00 | 0.00 | 0.00 | 65 | 1009.2 |
| 20260505072534 | 66 | 231 | 1.0 | 4.0 | 0.00 | 0.00 | 0.00 | 65 | 1009.5 |
| 20260505071530 | 64 | 234 | 2.0 | 4.0 | 0.00 | 0.00 | 0.00 | 68 | 1009.6 |
| 20260505070526 | 63 | 248 | 2.0 | 4.0 | 0.00 | 0.00 | 0.00 | 69 | 1009.5 |
| 20260505065531 | 62 | 218 | 2.0 | 4.0 | 0.00 | 0.00 | 0.00 | 73 | 1009.5 |
| 20260505064520 | 62 | 244 | 2.0 | 4.0 | 0.00 | 0.00 | 0.00 | 74 | 1009.5 |
| 20260505063519 | 61 | 222 | 1.0 | 4.0 | 0.00 | 0.00 | 0.00 | 75 | 1009.5 |
| 20260505062612 | 60 | 241 | 2.0 | 4.0 | 0.00 | 0.00 | 0.00 | 76 | 1009.7 |
| 20260505061608 | 60 | 242 | 0.0 | 2.0 | 0.00 | 0.00 | 0.00 | 78 | 1009.6 |
| 20260505060604 | 60 | 190 | 1.0 | 2.0 | 0.00 | 0.00 | 0.00 | 79 | 1009.6 |
| 20260505055559 | 60 | 248 | 1.0 | 2.0 | 0.00 | 0.00 | 0.00 | 79 | 1009.6 |
| 20260505054558 | 59 | 245 | 1.0 | 2.0 | 0.00 | 0.00 | 0.00 | 78 | 1009.6 |
| 20260505053552 | 59 | 251 | 2.0 | 2.0 | 0.00 | 0.00 | 0.00 | 78 | 1009.6 |
| 20260505052552 | 59 | 242 | 1.0 | 2.0 | 0.00 | 0.00 | 0.00 | 78 | 1009.5 |
| 20260505051549 | 59 | 233 | 1.0 | 2.0 | 0.00 | 0.00 | 0.00 | 78 | 1009.4 |
| 20260505050542 | 59 | 225 | 2.0 | 2.0 | 0.00 | 0.00 | 0.00 | 78 | 1009.5 |
| 20260505041524 | 58 | 0.0 | 2.0 | 0.00 | 0.00 | 0.00 | 80 | 1009.4 | |
| 20260505040520 | 58 | 0.0 | 0.0 | 0.00 | 0.00 | 0.00 | 79 | 1009.3 |